Location: Forest Hills
(36.0651°N, 86.8403°W)
Time: 05:04:16
(UTC+00:00)

ARIANE 6 FM1 Upper Stage - Pass Details

Date: 22 January 2026
Orbit: 522 x 609 km, 62.0° (Epoch: 8 February)

Event Time Altitude Azimuth Distance (km) Brightness Sun altitude
Rises 23:53:11 0° 205° (SSW) 2,730 6.8 -10.2°
Reaches altitude 10° 23:55:26 10° 202° (SSW) 1,824 5.8 -10.6°
Maximum altitude 23:59:29 64° 122° (ESE) 601 2.6 -11.4°
Enters shadow 00:02:56 14° 41° (NE) 1,578 4.5 -12.1°
